#timestamp,LO_Frequency,Hit,StdDev 
1593856815.6,286046987.9,N
1593856835.5,286046983.4,Y
1593856855.3,286046990.0,P
1593856875.2,286046992.8,P
1593856895.9,286046997.0,N
1593856915.7,286046997.5,N
1593856935.6,286046994.7,N
1593856955.4,286046994.8,N
1593856975.2,286046993.1,N
1593856995.1,286046992.9,Y
1593856996.0,286046992.9,P
1593857015.8,286046991.3,P
1593857035.7,286046992.8,P
1593857055.5,286046993.2,Y
1593857075.3,286046996.7,P
1593857095.2,286046996.9,N
1593857115.0,286046997.9,N
1593857146.0,286046995.8,E
1593857155.9,286046996.5,N
1593857175.7,286047000.9,P
1593857195.5,286047002.8,N
1593857215.4,286047000.2,N
1593857235.2,286047004.2,N
1593857255.1,286047004.6,N
1593857256.0,286047004.6,N
1593857275.8,286047005.8,N
1593857295.6,286047004.6,N
1593857315.5,286047008.8,Y
1593857335.3,286046999.1,P
1593857355.1,286046998.5,N
1593857375.9,286046998.8,N
1593857395.7,286046998.5,N
1593857415.6,286046993.5,Y
1593857435.4,286046996.9,P
1593857455.2,286047001.9,N
1593857475.1,286047003.9,N
1593857476.0,286047003.9,N
1593857495.8,286047003.4,N
1593857515.6,286047005.2,N
1593857535.5,286047001.4,N
1593857555.3,286047000.3,N
1593857575.2,286046996.9,N
1593857595.9,286046995.4,N
1593857615.7,286046997.9,N
1593857635.6,286046996.8,N
1593857655.4,286046993.4,N
1593857675.2,286046996.6,N
1593857695.1,286046996.0,N
1593857696.0,286046996.0,N
1593857715.8,286046987.5,Y
1593857735.7,286046991.0,P
1593857755.5,286046993.3,N
1593857775.3,286046993.0,N
1593857795.2,286046993.3,N
1593857815.0,286046991.8,Y
1593857815.9,286046991.8,P
1593857835.7,286047004.0,P
1593857855.6,286047000.0,N
1593857875.4,286047002.7,N
1593857895.3,286047002.1,N
1593857915.1,286047000.4,N
1593857916.0,286047000.4,N
1593857935.8,286046995.1,N
1593857955.7,286046995.4,N
1593857975.5,286046997.5,N
1593857995.3,286046991.9,N
1593858015.2,286046994.0,N
1593858035.0,286046992.1,N
1593858035.9,286046992.1,N
1593858055.8,286046997.7,N
1593858075.6,286046992.7,N
1593858095.4,286046987.2,Y
1593858115.3,286046992.7,P
1593858135.1,286047001.9,N
1593858155.8,286047003.4,N
1593858175.7,286047005.5,N
1593858195.5,286047007.1,N
1593858215.4,286047006.8,N
1593858235.2,286047010.5,N
1593858255.0,286047006.0,N
1593858255.9,286047006.0,N
1593858275.8,286047000.8,N
1593858295.6,286047000.7,N
1593858315.4,286046998.3,N
1593858335.3,286046996.0,N
1593858355.1,286046998.5,N
1593858375.9,286047000.4,N
1593858395.7,286047000.0,N
1593858415.5,286047001.6,N
1593858435.4,286047000.2,N
1593858455.2,286047003.4,N
1593858475.0,286047004.7,N
1593858475.9,286047004.7,N
1593858495.8,286047008.1,N
1593858515.6,286047003.6,N
1593858535.5,286047003.8,N
1593858555.3,286047004.2,N
1593858575.1,286047007.0,N
1593858595.9,286047005.3,N
1593858615.7,286047002.1,N
1593858635.5,286047005.8,N
1593858655.4,286047000.0,N
1593858675.2,286047000.9,N
1593858695.1,286047000.6,N
1593858696.0,286047000.6,N
1593858715.8,286046995.1,N
1593858735.6,286046995.8,N
1593858755.5,286046990.0,N
1593858775.3,286046993.6,N
1593858795.1,286046997.3,N
1593858815.9,286046997.1,N
1593858835.7,286046994.8,N
1593858855.6,286046991.6,N
1593858875.4,286046987.3,N
1593858895.2,286046988.2,N
1593858915.1,286046988.5,N
1593858916.0,286046988.5,N
1593858935.8,286046991.0,N
1593858955.6,286046985.4,N
1593858975.5,286046982.5,N
1593858995.3,286046988.4,N
1593859015.2,286046987.9,N
1593859035.9,286046989.6,N
1593859055.7,286046991.1,N
1593859075.6,286046987.1,N
1593859095.4,286046991.2,N
1593859115.2,286046988.8,N
1593859135.1,286046984.6,N
1593859136.0,286046984.6,N
1593859155.8,286046984.5,N
1593859175.7,286046989.8,N
1593859195.5,286046990.0,N
1593859215.3,286046985.6,N
1593859235.2,286046987.7,N
1593859255.9,286046986.6,Y
1593859275.7,286046996.6,P
1593859295.6,286046998.2,N
1593859315.4,286047002.0,N
1593859335.3,286047003.3,N
1593859355.1,286046999.1,N
1593859356.0,286046999.1,N
1593859375.8,286046999.6,N
1593859395.7,286046996.8,N
1593859415.5,286047000.4,N
1593859435.3,286046997.6,N
1593859455.2,286046998.3,N
1593859475.0,286046996.2,N
1593859475.9,286046996.2,N
1593859495.8,286046996.1,N
1593859515.6,286046991.6,N
1593859535.4,286046988.1,Y
1593859555.3,286046988.5,P
1593859575.1,286046985.3,P
1593859595.9,286046986.0,N
1593859615.7,286046985.0,Y
1593859635.5,286046991.4,P
1593859655.4,286046988.6,P
1593859675.2,286046988.9,P
1593859695.0,286046985.4,Y
1593859695.9,286046985.4,P
1593859715.8,286046994.2,N
1593859735.6,286046994.7,N
1593859755.5,286046992.3,N
1593859775.3,286046991.3,N
1593859795.2,286046985.6,Y
1593859815.9,286046993.6,P
1593859835.7,286046989.5,P
1593859855.6,286046988.8,P
1593859875.4,286046991.9,Y
1593859895.3,286046998.4,P
1593859915.1,286046992.9,N
1593859916.0,286046992.9,N
1593859935.8,286046987.7,Y
1593859955.7,286046988.5,P
1593859975.5,286046996.2,N
1593859995.4,286046993.7,N
1593860015.2,286046996.5,N
1593860035.0,286047000.7,N
1593860035.9,286047000.7,N
1593860055.8,286046998.1,N
1593860075.6,286046993.4,N
1593860095.4,286047000.8,N
1593860115.3,286047000.8,N
1593860135.1,286046997.7,N
1593860155.9,286046997.1,N
1593860175.7,286046998.0,N
1593860195.5,286046995.9,N
1593860215.4,286046995.5,N
1593860235.2,286046996.4,N
1593860255.0,286046997.1,N
1593860255.9,286046997.1,N
1593860275.8,286046995.3,N
1593860295.6,286046993.6,N
1593860315.4,286046995.9,N
1593860335.3,286046996.1,N
1593860355.1,286046992.3,N
1593860375.9,286046994.4,N
1593860395.7,286046993.0,N
